Alexandria Esle, LA

11:14 PM CDT on June 28, 2017 (GMT -0500)
Alexandria Esler Regional

Weather History for KESF - January, 2013

Change the Weather History Date:

Saturday, January 5, 2013

  Actual Average Record
Temperature  
Mean Temperature 44 °F -  
Max Temperature 45 °F 52 °F 77 °F (2012)
Min Temperature 42 °F 34 °F 18 °F (1969)
Degree Days  
Heating Degree Days 22    
Moisture  
Dew Point 41 °F    
Average Humidity 89    
Maximum Humidity 93    
Minimum Humidity 68    
Precipitation  
Precipitation 0.66 in - - ()
Sea Level Pressure  
Sea Level Pressure 30.34 in    
Wind  
Wind Speed 1 mph (NNE)    
Max Wind Speed 6 mph    
Max Gust Speed -    
Visibility 8 miles    
Events Rain    
Averages and records for this station are not official NWS values.
T = Trace of Precipitation, MM = Missing Value Source: NWS Daily Summary

Daily Weather History Graph

Daily Weather History Graph

Search for Another Location

Airport or City:

Trip Planner

Search our weather history database for the weather conditions in past years. The results will help you decide how hot, cold, wet, or windy it might be!

Date:

Astronomy

Jan. 05, 2013 Rise Set
Actual Time 7:09 AM CST 5:20 PM CST
Civil Twilight 6:42 AM CST 5:47 PM CST
Nautical Twilight 6:12 AM CST 6:17 PM CST
Astronomical Twilight 5:42 AM CST 6:46 PM CST
Moon 12:29 AM CST (1/5) 11:59 AM CST (1/5)
Length of Visible Light 11h 04m
Length of Day
10h 11m
Last Quarter, 44% of the Moon is Illuminated
Jan 5
Last Quarter
Jan 11
New
Jan 18
First Quarter
Jan 26
Full
Feb 3
Last Quarter

Hourly Weather History & Observations

Time (CST) Temp. Windchill Dew Point Humidity Pressure Visibility Wind Dir Wind Speed Gust Speed Precip Events Conditions
12:53 AM 45.0 °F - 35.1 °F 68% 30.34 in 10.0 mi Calm Calm - N/A   Overcast
1:53 AM 43.0 °F - 39.9 °F 89% 30.35 in 10.0 mi Calm Calm - 0.01 in Rain Light Rain
2:53 AM 43.0 °F - 39.0 °F 86% 30.37 in 10.0 mi Calm Calm - 0.02 in Rain Light Rain
3:53 AM 43.0 °F - 39.9 °F 89% 30.39 in 10.0 mi Calm Calm - 0.01 in Rain Light Rain
4:53 AM 42.1 °F 40.2 °F 39.0 °F 89% 30.36 in 10.0 mi NNE 3.5 mph - 0.01 in   Overcast
5:53 AM 42.1 °F - 39.0 °F 89% 30.37 in 7.0 mi Calm Calm - 0.01 in Rain Rain
6:53 AM 42.1 °F - 39.0 °F 89% 30.39 in 10.0 mi Calm Calm - 0.00 in   Overcast
7:53 AM 43.0 °F - 39.0 °F 86% 30.39 in 10.0 mi Calm Calm - N/A   Overcast
8:53 AM 44.1 °F 42.5 °F 39.9 °F 85% 30.39 in 10.0 mi North 3.5 mph - N/A   Overcast
9:53 AM 43.0 °F 41.3 °F 39.9 °F 89% 30.40 in 6.0 mi North 3.5 mph - 0.03 in Rain Light Rain
10:03 AM 42.8 °F 41.1 °F 39.2 °F 87% 30.40 in 2.0 mi North 3.5 mph - 0.06 in Rain Heavy Rain
10:10 AM 42.8 °F 41.1 °F 39.2 °F 87% 30.40 in 3.0 mi Variable 3.5 mph - 0.07 in Rain Rain
10:25 AM 42.8 °F 41.1 °F 39.2 °F 87% 30.40 in 6.0 mi Variable 3.5 mph - 0.08 in Rain Light Rain
10:36 AM 42.8 °F - 39.2 °F 87% 30.39 in 2.5 mi Calm Calm - 0.14 in Rain Rain
10:53 AM 42.1 °F 39.2 °F 39.0 °F 89% 30.40 in 2.0 mi NNW 4.6 mph - 0.22 in Rain Heavy Rain
11:07 AM 42.8 °F 39.3 °F 39.2 °F 87% 30.39 in 4.0 mi ENE 5.8 mph - 0.03 in Rain Rain
11:53 AM 43.0 °F 41.3 °F 39.9 °F 89% 30.39 in 6.0 mi North 3.5 mph - 0.14 in Rain Light Rain
1:53 PM 44.1 °F - 41.0 °F 89% 30.31 in 7.0 mi Calm Calm - N/A Rain Light Rain
2:05 PM 44.6 °F 43.1 °F 42.8 °F 93% 30.30 in 6.0 mi East 3.5 mph - 0.01 in Rain Light Rain
2:28 PM 44.6 °F 42.2 °F 42.8 °F 93% 30.30 in 10.0 mi ENE 4.6 mph - 0.01 in   Overcast
2:53 PM 45.0 °F 42.6 °F 41.0 °F 86% 30.30 in 10.0 mi Variable 4.6 mph - 0.01 in   Overcast
3:53 PM 45.0 °F - 42.1 °F 90% 30.31 in 10.0 mi Calm Calm - 0.01 in Rain Light Rain
4:53 PM 44.1 °F - 41.0 °F 89% 30.31 in 4.0 mi Calm Calm - 0.04 in Rain Rain
5:53 PM 44.1 °F - 41.0 °F 89% 30.28 in 10.0 mi Calm Calm - 0.08 in   Overcast
6:26 PM 44.6 °F - 41.0 °F 87% 30.30 in 9.0 mi Calm Calm - 0.01 in Rain Light Rain
6:53 PM 44.1 °F - 42.1 °F 93% 30.30 in 7.0 mi Calm Calm - 0.02 in Rain Light Rain
7:01 PM 44.6 °F - 42.8 °F 93% 30.30 in 8.0 mi Calm Calm - 0.00 in Rain Light Rain
7:12 PM 44.6 °F - 42.8 °F 93% 30.30 in 5.0 mi Calm Calm - 0.01 in Rain Light Rain
7:53 PM 44.1 °F - 42.1 °F 93% 30.29 in 8.0 mi Calm Calm - 0.02 in Rain Light Rain
8:53 PM 44.1 °F - 42.1 °F 93% 30.29 in 8.0 mi Calm Calm - 0.02 in Rain Light Rain
9:02 PM 44.6 °F - 42.8 °F 93% 30.30 in 10.0 mi Calm Calm - 0.00 in   Overcast
9:53 PM 44.1 °F - 42.1 °F 93% 30.30 in 10.0 mi Calm Calm - 0.00 in   Overcast
10:04 PM 44.6 °F - 42.8 °F 93% 30.29 in 10.0 mi Calm Calm - N/A   Overcast
10:15 PM 44.6 °F 43.1 °F 42.8 °F 93% 30.28 in 10.0 mi NE 3.5 mph - 0.01 in   Overcast
10:53 PM 44.1 °F 42.5 °F 42.1 °F 93% 30.28 in 10.0 mi Variable 3.5 mph - 0.01 in   Overcast
11:53 PM 44.1 °F - 42.1 °F 93% 30.27 in 10.0 mi Calm Calm - N/A   Overcast